• In Schweiz
  • Länderverzeichnis
  • Für 7 Tage
  • Wassertemperatur
  • Satellitenkarten
  • Wetterkarte
  • Widgets
  • user-avatar
    Anmelden

    Stündliche Wetter Julara

    Heute, 22 Mai, Dienstag

    Zeit Temperatur Niederschläge Wind Luftdruck Luftfeuchtigkeit
    00:00 +13°C° 0 mm 5 m/S 726 mmHg 45%
    01:00 +12°C° 0 mm 5 m/S 726 mmHg 46%
    02:00 +12°C° 0 mm 5 m/S 725 mmHg 47%
    03:00 +10°C° 0 mm 5 m/S 725 mmHg 48%
    04:00 +10°C° 0 mm 5 m/S 725 mmHg 50%
    05:00 +10°C° 0 mm 4 m/S 726 mmHg 51%
    06:00 +10°C° 0 mm 4 m/S 726 mmHg 52%
    07:00 +10°C° 0 mm 6 m/S 726 mmHg 48%
    08:00 +12°C° 0 mm 7 m/S 726 mmHg 44%
    09:00 +15°C° 0 mm 8 m/S 726 mmHg 39%
    10:00 +16°C° 0 mm 8 m/S 726 mmHg 34%
    11:00 +18°C° 0 mm 9 m/S 725 mmHg 30%
    12:00 +21°C° 0 mm 9 m/S 725 mmHg 26%
    13:00 +21°C° 0 mm 9 m/S 725 mmHg 25%
    14:00 +22°C° 0 mm 9 m/S 724 mmHg 23%
    15:00 +23°C° 0 mm 8 m/S 723 mmHg 21%
    16:00 +22°C° 0 mm 7 m/S 724 mmHg 23%
    17:00 +20°C° 0 mm 6 m/S 724 mmHg 26%
    18:00 +19°C° 0 mm 5 m/S 724 mmHg 28%
    19:00 +17°C° 0 mm 5 m/S 724 mmHg 31%
    20:00 +16°C° 0 mm 5 m/S 724 mmHg 33%
    21:00 +16°C° 0 mm 5 m/S 724 mmHg 36%
    22:00 +15°C° 0 mm 5 m/S 724 mmHg 37%
    23:00 +14°C° 0 mm 5 m/S 725 mmHg 39%

    Morgen, 23 Mai, Mittwoch

    Zeit Temperatur Niederschläge Wind Luftdruck Luftfeuchtigkeit
    00:00 +14°C° 0 mm 5 m/S 725 mmHg 41%
    01:00 +13°C° 0 mm 5 m/S 725 mmHg 42%
    02:00 +13°C° 0 mm 5 m/S 725 mmHg 44%
    03:00 +12°C° 0 mm 4 m/S 724 mmHg 45%
    04:00 +12°C° 0 mm 4 m/S 724 mmHg 46%
    05:00 +12°C° 0 mm 4 m/S 724 mmHg 46%
    06:00 +12°C° 0 mm 4 m/S 724 mmHg 47%
    07:00 +13°C° 0 mm 5 m/S 725 mmHg 45%
    08:00 +14°C° 0 mm 6 m/S 725 mmHg 42%
    09:00 +15°C° 0 mm 7 m/S 725 mmHg 39%
    10:00 +17°C° 0 mm 7 m/S 725 mmHg 34%
    11:00 +20°C° 0 mm 7 m/S 725 mmHg 30%
    12:00 +21°C° 0 mm 7 m/S 724 mmHg 25%
    13:00 +22°C° 0 mm 7 m/S 724 mmHg 23%
    14:00 +22°C° 0 mm 7 m/S 723 mmHg 21%
    15:00 +23°C° 0 mm 6 m/S 723 mmHg 20%
    16:00 +21°C° 0 mm 6 m/S 723 mmHg 22%
    17:00 +19°C° 0 mm 5 m/S 723 mmHg 25%
    18:00 +18°C° 0 mm 4 m/S 723 mmHg 28%
    19:00 +17°C° 0 mm 4 m/S 723 mmHg 30%
    20:00 +15°C° 0 mm 4 m/S 723 mmHg 33%
    21:00 +14°C° 0 mm 4 m/S 723 mmHg 36%
    22:00 +13°C° 0 mm 4 m/S 723 mmHg 39%
    23:00 +12°C° 0 mm 4 m/S 723 mmHg 42%

    übermorgen, 24 Mai, Donnerstag

    Zeit Temperatur Niederschläge Wind Luftdruck Luftfeuchtigkeit
    00:00 +11°C° 0 mm 3 m/S 723 mmHg 44%
    01:00 +11°C° 0 mm 3 m/S 723 mmHg 46%
    02:00 +10°C° 0 mm 3 m/S 722 mmHg 49%
    03:00 +10°C° 0 mm 3 m/S 722 mmHg 51%
    04:00 +10°C° 0 mm 3 m/S 722 mmHg 52%
    05:00 +9°C° 0 mm 3 m/S 722 mmHg 54%
    06:00 +8°C° 0 mm 4 m/S 722 mmHg 56%
    07:00 +11°C° 0 mm 4 m/S 723 mmHg 52%
    08:00 +12°C° 0 mm 5 m/S 723 mmHg 48%
    09:00 +14°C° 0 mm 5 m/S 723 mmHg 44%
    10:00 +16°C° 0 mm 5 m/S 723 mmHg 39%
    11:00 +19°C° 0 mm 5 m/S 723 mmHg 34%
    12:00 +20°C° 0 mm 5 m/S 722 mmHg 29%
    13:00 +21°C° 0 mm 5 m/S 722 mmHg 27%
    14:00 +22°C° 0 mm 4 m/S 721 mmHg 25%
    15:00 +22°C° 0 mm 4 m/S 720 mmHg 22%
    16:00 +21°C° 0 mm 4 m/S 720 mmHg 25%
    17:00 +19°C° 0 mm 4 m/S 720 mmHg 27%
    18:00 +18°C° 0 mm 3 m/S 720 mmHg 29%
    19:00 +17°C° 0 mm 4 m/S 721 mmHg 32%
    20:00 +15°C° 0 mm 4 m/S 721 mmHg 34%
    21:00 +15°C° 0 mm 4 m/S 721 mmHg 36%
    22:00 +14°C° 0 mm 4 m/S 721 mmHg 39%
    23:00 +13°C° 0 mm 4 m/S 721 mmHg 41%

    25 Mai, Freitag

    Zeit Temperatur Niederschläge Wind Luftdruck Luftfeuchtigkeit
    00:00 +13°C° 0 mm 4 m/S 721 mmHg 44%
    01:00 +12°C° 0 mm 4 m/S 721 mmHg 47%
    02:00 +12°C° 0 mm 4 m/S 720 mmHg 51%
    03:00 +11°C° 0 mm 4 m/S 720 mmHg 54%
    04:00 +11°C° 0 mm 4 m/S 720 mmHg 57%
    05:00 +11°C° 0 mm 3 m/S 720 mmHg 60%
    06:00 +10°C° 0 mm 3 m/S 720 mmHg 62%
    07:00 +12°C° 0 mm 4 m/S 720 mmHg 58%
    08:00 +14°C° 0 mm 5 m/S 721 mmHg 53%
    09:00 +16°C° 0 mm 5 m/S 721 mmHg 49%
    10:00 +19°C° 0 mm 6 m/S 721 mmHg 43%
    11:00 +21°C° 0 mm 6 m/S 720 mmHg 38%
    12:00 +23°C° 0 mm 6 m/S 720 mmHg 32%
    13:00 +25°C° 0 mm 5 m/S 719 mmHg 29%
    14:00 +26°C° 0 mm 5 m/S 719 mmHg 26%
    15:00 +26°C° 0 mm 4 m/S 718 mmHg 23%
    16:00 +24°C° 0 mm 3 m/S 718 mmHg 26%
    17:00 +22°C° 0 mm 3 m/S 719 mmHg 29%
    18:00 +20°C° 0 mm 2 m/S 719 mmHg 31%
    19:00 +19°C° 0 mm 3 m/S 719 mmHg 33%
    20:00 +19°C° 0 mm 3 m/S 719 mmHg 34%
    21:00 +18°C° 0 mm 4 m/S 720 mmHg 36%
    22:00 +18°C° 0 mm 4 m/S 720 mmHg 37%
    23:00 +17°C° 0 mm 4 m/S 719 mmHg 38%

    26 Mai, Samstag

    Zeit Temperatur Niederschläge Wind Luftdruck Luftfeuchtigkeit
    00:00 +15°C° 0 mm 4 m/S 719 mmHg 39%
    01:00 +15°C° 0 mm 4 m/S 719 mmHg 40%
    02:00 +15°C° 0 mm 4 m/S 719 mmHg 41%
    03:00 +14°C° 0 mm 4 m/S 718 mmHg 42%
    04:00 +14°C° 0 mm 4 m/S 719 mmHg 43%
    05:00 +14°C° 0 mm 3 m/S 719 mmHg 45%
    06:00 +13°C° 0 mm 3 m/S 719 mmHg 47%
    07:00 +16°C° 0 mm 3 m/S 720 mmHg 44%
    08:00 +17°C° 0 mm 3 m/S 720 mmHg 40%
    09:00 +19°C° 0 mm 2 m/S 721 mmHg 37%
    10:00 +20°C° 0 mm 2 m/S 720 mmHg 35%
    11:00 +21°C° 0 mm 2 m/S 720 mmHg 32%
    12:00 +24°C° 0 mm 2 m/S 720 mmHg 30%
    13:00 +24°C° 0 mm 2 m/S 719 mmHg 29%
    14:00 +25°C° 0 mm 2 m/S 719 mmHg 27%
    15:00 +26°C° 0 mm 2 m/S 718 mmHg 26%
    16:00 +25°C° 0 mm 2 m/S 718 mmHg 28%
    17:00 +24°C° 0 mm 3 m/S 718 mmHg 30%
    18:00 +21°C° 0 mm 3 m/S 718 mmHg 33%
    19:00 +21°C° 0 mm 3 m/S 719 mmHg 34%
    20:00 +21°C° 0 mm 3 m/S 719 mmHg 34%
    21:00 +21°C° 0 mm 3 m/S 719 mmHg 35%
    22:00 +21°C° 0 mm 3 m/S 719 mmHg 36%
    23:00 +20°C° 0 mm 3 m/S 719 mmHg 36%

    27 Mai, Sonntag

    Zeit Temperatur Niederschläge Wind Luftdruck Luftfeuchtigkeit
    00:00 +20°C° 0 mm 3 m/S 719 mmHg 37%
    01:00 +20°C° 0 mm 3 m/S 719 mmHg 38%
    02:00 +20°C° 0 mm 3 m/S 719 mmHg 40%
    03:00 +20°C° 0 mm 3 m/S 719 mmHg 41%
    04:00 +19°C° 0 mm 3 m/S 719 mmHg 44%
    05:00 +18°C° 0 mm 3 m/S 719 mmHg 47%
    06:00 +17°C° 0 mm 3 m/S 719 mmHg 51%
    07:00 +18°C° 0 mm 3 m/S 720 mmHg 48%
    08:00 +19°C° 0 mm 4 m/S 720 mmHg 45%
    09:00 +20°C° 0 mm 4 m/S 721 mmHg 42%
    10:00 +21°C° 0 mm 4 m/S 720 mmHg 38%
    11:00 +24°C° 0 mm 3 m/S 720 mmHg 35%
    12:00 +25°C° 0 mm 3 m/S 720 mmHg 31%
    13:00 +26°C° 0 mm 3 m/S 720 mmHg 29%
    14:00 +27°C° 0 mm 2 m/S 719 mmHg 27%
    15:00 +27°C° 0 mm 2 m/S 719 mmHg 25%
    16:00 +26°C° 0 mm 3 m/S 719 mmHg 28%
    17:00 +24°C° 0 mm 3 m/S 719 mmHg 30%
    18:00 +22°C° 0 mm 4 m/S 720 mmHg 33%
    19:00 +21°C° 0 mm 4 m/S 720 mmHg 35%
    20:00 +20°C° 0 mm 5 m/S 720 mmHg 37%
    21:00 +19°C° 0 mm 5 m/S 721 mmHg 40%
    22:00 +17°C° 0 mm 5 m/S 721 mmHg 41%
    23:00 +17°C° 0 mm 5 m/S 721 mmHg 43%
    Mehr zeigen